{"data":{"norad_id":69809,"intl_designator":"2026-153K","name":"QIANFAN-210","alt_names":[],"object_type":"PAYLOAD","status":"ACTIVE","operator":null,"country":"PRC","launch_date":"2026-07-04","launch_site_code":"TAISC","launch_vehicle":null,"mission":null,"orbit_class":"UNKNOWN","rcs_meters":null,"size_class":null,"mass_kg":null,"dimensions":null,"purposes":[],"wikipedia_slug":null,"has_3d_model":false,"image_url":null,"decayed_at":null,"tle_current":{"epoch":"2026-09-19T20:44:48.924096Z","epoch_age_seconds":76546,"freshness":"FRESH","line1":"1 69809U 26153K   26262.86445514 -.01770622  00000+0 -13186+1 0  9999","line2":"2 69809  88.9973 351.5303 0004686  35.4753 324.6736 13.99150769 10966","mean_motion":13.99150769,"eccentricity":0.0004686,"inclination_deg":88.9973,"raan_deg":351.5303,"arg_perigee_deg":35.4753,"mean_anomaly_deg":324.6736,"bstar":-1.3186,"rev_number":1096,"period_min":102.91957320863,"perigee_km":893.32836007917,"apogee_km":900.14637233518,"semimajor_km":7274.8743662072,"source":"CELESTRAK","updated_at":"2026-09-20T09:00:25.121571Z"}}}